Simultaneous Nadir Overpasses (SNOs) Predictions

Prediction of SNOs between FY3D and NOAA-19 Satellite Orbit:

Table of predicted SNOs for the next 14.0 days since TLE Epoch: 2/10/2024
Index Date (FY3D) Time (FY3D) Lat,Lon (FY3D) SZA (FY3D ) Date (NOAA-19) Time (NOAA-19) Lat,Lon (NOAA-19) SZA (NOAA-19 ) Distance(km) Time Diff (sec)
1 02/11/2024 23:50:13 75.94, 179.48 89.89 02/11/2024 23:49:02 75.93, 177.88 89.94 43.27 71
2 02/12/2024 00:41:03 -76.15, -13.95 89.90 02/12/2024 00:39:57 -76.19, -13.95 89.86 3.65 66
3 02/12/2024 01:31:49 76.17, 153.30 90.11 02/12/2024 01:30:55 76.17, 153.26 90.12 1.28 54
4 02/12/2024 02:22:35 -76.20, -39.49 89.88 02/12/2024 02:21:55 -76.20, -39.38 89.87 2.96 40
5 02/12/2024 03:13:21 76.21, 127.77 90.13 02/12/2024 03:12:53 76.19, 127.84 90.12 2.91 28
6 02/12/2024 04:04:06 -76.20, -64.86 89.90 02/12/2024 04:03:53 -76.22, -64.81 89.88 3.12 13
7 02/12/2024 04:54:52 76.21, 102.39 90.11 02/12/2024 04:54:51 76.21, 102.41 90.11 0.48 1
8 02/12/2024 05:45:38 -76.24, -90.40 89.88 02/12/2024 05:45:51 -76.24, -90.24 89.88 4.30 13
9 02/12/2024 06:36:23 76.21, 77.02 90.09 02/12/2024 06:36:49 76.23, 76.99 90.10 2.19 26
10 02/12/2024 07:27:09 -76.24,-115.77 89.90 02/12/2024 07:27:50 -76.21,-115.83 89.93 3.37 41
11 02/12/2024 08:17:55 76.25, 51.48 90.11 02/12/2024 08:18:47 76.25, 51.56 90.09 2.25 52
12 02/12/2024 09:08:40 -76.24,-141.14 89.93 02/12/2024 09:09:48 -76.23,-141.26 89.94 3.12 68
13 02/12/2024 09:59:30 76.43, 25.44 90.28 02/12/2024 10:00:41 76.44, 26.81 90.24 35.73 71



Historial Predications of SNOs between FY3D and NOAA-19
